Weather in Lyuban

Belarus     52°47′56″N   27°59′36″E
temp.,
°C
wind,
m/s
gust,
m/s
humid.,
%
clouds,
%
prec.,
mm/h
press.,
hPa
HPBL,
m
25 february, thu
thu2500:00+3wsw47100100 0.0 1030139
03:00+3wsw49100100 0.0 1029183
06:00+4w49100100 0.0 1028162
09:00+4w410100100 0.0 1028245
12:00+5w61299100 0.0 1027331
15:00+7w61098100 0.0 1027366
18:00+6w51098100 0.0 1026254
21:00+4w379997 0.0 1026149
26 february, fri
fri2600:00+4wsw4899100 0.0 1025174
03:00+4wsw51098100 0.0 1023226
06:00+2wsw489686 0.0 1021204
09:00+2w389666 0.0 1020193
12:00+7w6129191 0.0 1020628
15:00+7w6117795 0.0 1019776
18:00+5w51381100 0.0 1017471
21:00+4w51486100 0.0 1018493
27 february, sat
sat2700:00+3w51285100 0.0 1016524
03:00+3w61287100 0.1 1016565
06:00+3wnw71387100 0.0 1014720
09:00+3wnw7139199 0.0 1015645
12:00+3nw71189100 0.8 1015875
15:00+2nw71193100 0.8 1016682
18:00+2nnw71196100 0.1 1018762
21:00+1nnw61096100 0.3 1021622
28 february, sun
sun2800:00+1nnw5108997 0.1 1023673
03:00−1nnw499184 0.1 1025352
06:000nnw5108590 0.0 1025695
09:000nnw488693 0.2 1027701
12:00+1nnw577699 0.1 1026901
15:00+1nw687499 0.1 1027901
18:00+1nw4876100 0.0 1026553
21:00+1nw41278100 0.0 1027503
1 march, mon
mon100:000wnw389894 0.3 1027276
03:00+2nw269797 0.4 1027244
06:00+1wnw2399100 0.0 102794
09:00+2wnw2399100 1.1 1028105
12:00+2nnw3598100 1.4 1029223
15:00+4n2389100 1.5 1030362
18:00+4nw128491 0.0 103054
21:00+2w239374 0.0 103158